Powrót do katalogu

STARLINK-30221

AktywnyŁącznośćVLEO
NORAD 57418·PAYLOAD·🇺🇸 United States

Wystrzelony Jul 20, 2023 z Vandenberg Space Force Base

Loading…

Następne Przeloty (najbliższe 24 godziny)

TLE

ŚwieżeSource: CelesTrak SupGP

Epoka: Sep 14, 2026, 20:33 UTC

1 57418C 23102Q   26257.85673611  .00459220  00000+0  59230-2 0  2571
2 57418  42.9994 262.2134 0001778 277.4024 191.1064 15.57865947    13

Śledź STARLINK-30221 w czasie rzeczywistym z AllMySat

Download on the App Store